EW4427 Weather Reports


time (UTC)temp
C
wind
direction
speed
KPH
gust
KPH
rain 1hr
cm
rain 24hr
cm
rain mn
cm
humidity
%
barometer
mb
20260904030104 22 0 0.0 0.0 0.00 0.03 0.00 91 1014.5
20260904025546 22 0 0.0 0.0 0.00 0.03 0.00 91 1014.4
20260904025043 22 0 0.0 0.0 0.00 0.03 0.00 91 1014.5
20260904024604 22 0 0.0 0.0 0.00 0.03 0.00 90 1014.4
20260904024046 22 0 0.0 0.0 0.00 0.03 0.00 90 1014.5
20260904023546 22 0 0.0 0.0 0.00 0.03 0.00 90 1014.5
20260904023102 22 0 0.0 0.0 0.00 0.03 0.00 90 1014.5
20260904022546 22 0 0.0 0.0 0.00 0.03 0.00 89 1014.4
20260904022047 22 0 0.0 0.0 0.00 0.03 0.00 89 1014.3
20260904021605 22 0 0.0 0.0 0.00 0.03 0.00 89 1014.3
20260904021046 22 0 0.0 0.0 0.00 0.03 0.00 89 1014.3
20260904020546 22 0 0.0 0.0 0.00 0.03 0.00 89 1014.4
20260904020106 22 0 0.0 0.0 0.00 0.03 0.00 89 1014.4
20260904015544 22 0 0.0 0.0 0.00 0.03 0.00 89 1014.4
20260904015046 22 0 0.0 0.0 0.00 0.03 0.00 88 1014.2
20260904014609 22 0 0.0 0.0 0.00 0.03 0.00 88 1014.1
20260904014046 22 0 0.0 0.0 0.00 0.03 0.00 88 1013.9
20260904013548 23 0 0.0 0.0 0.00 0.03 0.00 88 1013.8
20260904013058 23 0 0.0 1.6 0.00 0.03 0.00 88 1013.9
20260904012544 23 0 0.0 1.6 0.00 0.03 0.00 87 1013.7
20260904012044 23 0 0.0 1.6 0.00 0.03 0.00 87 1013.7
20260904011601 23 0 0.0 0.0 0.00 0.03 0.00 87 1013.6
20260904011046 23 0 0.0 1.6 0.00 0.03 0.00 86 1013.6
20260904010544 23 0 0.0 1.6 0.00 0.03 0.00 86 1013.4
20260904010115 23 0 0.0 1.6 0.00 0.03 0.00 86 1013.5
20260904005548 23 0 0.0 1.6 0.00 0.03 0.00 86 1013.4
20260904005044 23 0 0.0 0.0 0.00 0.03 0.00 86 1013.3
20260904004602 23 0 0.0 0.0 0.00 0.03 0.00 85 1013.3
20260904004046 23 0 0.0 3.2 0.00 0.03 0.00 86 1013.2
20260904003545 23 0 0.0 3.2 0.00 0.03 0.00 86 1013.4
20260904003108 23 24 0.0 1.6 0.00 0.03 0.00 85 1013.4
20260904002545 23 0 0.0 1.6 0.00 0.03 0.00 85 1013.3
20260904002047 23 0 0.0 1.6 0.00 0.03 0.00 85 1013.2
20260904001601 24 0 0.0 1.6 0.00 0.03 0.00 85 1013.4
20260904001044 24 0 0.0 0.0 0.00 0.03 0.00 84 1013.3
20260904000544 24 0 0.0 0.0 0.00 0.03 0.00 84 1013.1
20260904000103 24 0 0.0 1.6 0.00 0.03 0.00 84 1013.1
20260903235545 24 0 0.0 3.2 0.00 0.03 0.00 84 1013.4
20260903235044 24 24 0.0 3.2 0.00 0.03 0.00 84 1013.4
20260903234601 24 11 0.0 4.8 0.00 0.03 0.00 83 1013.2
20260903234047 25 0 0.0 4.8 0.00 0.03 0.00 83 1013.1
20260903233548 25 13 0.0 1.6 0.00 0.03 0.00 82 1013.0
20260903233106 25 0 0.0 1.6 0.00 0.03 0.00 82 1013.0
20260903232544 25 0 0.0 3.2 0.00 0.03 0.00 82 1013.0
20260903232045 25 0 0.0 3.2 0.00 0.03 0.00 81 1012.9
20260903231557 25 17 0.0 3.2 0.00 0.03 0.00 81 1012.8
20260903231044 25 0 0.0 3.2 0.00 0.03 0.00 80 1012.9
20260903230544 25 0 0.0 3.2 0.00 0.03 0.00 80 1013.0
20260903230058 26 0 0.0 4.8 0.00 0.03 0.00 79 1013.0
20260903225545 26 107 0.0 4.8 0.00 0.03 0.00 79 1013.0
20260903225047 26 80 0.0 4.8 0.00 0.03 0.00 79 1013.0
20260903224557 26 0 0.0 4.8 0.00 0.03 0.00 78 1013.1
20260903224049 26 0 0.0 6.4 0.00 0.03 0.00 78 1013.1
20260903223545 26 9 0.0 6.4 0.00 0.03 0.00 78 1013.3
20260903223103 27 10 0.0 8.0 0.00 0.03 0.00 78 1013.2
20260903222547 27 22 1.6 8.0 0.00 0.03 0.00 78 1013.1
20260903222043 27 9 1.6 8.0 0.00 0.03 0.00 80 1012.9
20260903221559 27 19 1.6 8.0 0.00 0.03 0.00 81 1012.9
20260903221045 27 5 0.0 3.2 0.00 0.03 0.00 82 1012.9
20260903220547 27 0 0.0 1.6 0.00 0.03 0.00 83 1013.0
20260903220100 27 0 0.0 4.8 0.00 0.03 0.00 83 1013.0
20260903215547 27 0 0.0 4.8 0.00 0.03 0.00 82 1012.9
20260903215044 27 0 0.0 1.6 0.00 0.03 0.00 83 1013.0
20260903214558 27 0 0.0 0.0 0.00 0.03 0.00 83 1013.1
20260903214043 27 0 0.0 0.0 0.00 0.03 0.00 83 1013.2
20260903213543 27 0 0.0 0.0 0.00 0.03 0.00 83 1013.0
20260903213103 27 0 0.0 3.2 0.00 0.03 0.00 82 1013.0
20260903212543 27 0 0.0 3.2 0.00 0.03 0.00 82 1013.0
20260903212046 27 0 0.0 3.2 0.00 0.03 0.00 83 1013.1
20260903211601 27 0 0.0 3.2 0.00 0.03 0.00 83 1013.0
20260903211047 27 0 0.0 0.0 0.00 0.03 0.00 84 1012.9
20260903210546 27 0 0.0 0.0 0.00 0.03 0.00 84 1013.0
20260903210120 27 0 0.0 1.6 0.00 0.03 0.00 83 1013.1
20260903205543 27 0 0.0 3.2 0.00 0.03 0.00 83 1013.0
20260903205044 27 0 0.0 6.4 0.00 0.03 0.00 83 1013.0
20260903204620 27 0 0.0 6.4 0.00 0.03 0.00 82 1013.0
20260903204046 27 188 1.6 8.0 0.00 0.03 0.00 83 1013.0
20260903203542 26 188 3.2 8.0 0.00 0.03 0.00 83 1013.1
20260903203100 26 188 3.2 8.0 0.00 0.03 0.00 83 1013.1
20260903202546 26 190 3.2 8.0 0.00 0.03 0.00 83 1013.1
20260903202044 26 187 4.8 8.0 0.00 0.03 0.00 84 1013.1
20260903201600 26 163 4.8 8.0 0.00 0.03 0.00 83 1013.1
20260903201048 26 185 3.2 8.0 0.00 0.03 0.00 85 1013.3
20260903200546 26 183 4.8 9.7 0.00 0.03 0.00 84 1013.1
20260903200059 26 194 6.4 11.3 0.00 0.03 0.00 84 1013.0
20260903195545 26 182 6.4 11.3 0.00 0.03 0.00 84 1013.1
20260903195046 26 194 6.4 11.3 0.00 0.03 0.00 84 1013.0
20260903194605 26 191 6.4 11.3 0.00 0.03 0.00 86 1013.1
20260903194045 25 173 4.8 9.7 0.00 0.03 0.00 89 1013.3
20260903193545 25 191 3.2 6.4 0.00 0.03 0.00 92 1013.4
20260903193059 25 186 1.6 6.4 0.00 0.03 0.00 94 1013.4
20260903192547 25 171 0.0 3.2 0.00 0.03 0.00 95 1013.5
20260903192046 25 0 0.0 3.2 0.00 0.03 0.00 95 1013.5
20260903191559 25 0 0.0 3.2 0.00 0.03 0.00 95 1013.5
20260903191046 25 171 0.0 3.2 0.00 0.03 0.00 96 1013.4
20260903190546 25 0 0.0 1.6 0.00 0.03 0.00 97 1013.6
20260903190106 25 0 0.0 3.2 0.00 0.03 0.00 97 1013.8
20260903185546 24 0 0.0 3.2 0.00 0.03 0.00 97 1013.8
20260903185046 24 171 0.0 3.2 0.00 0.03 0.00 97 1013.5
20260903184604 24 171 0.0 3.2 0.00 0.03 0.00 97 1013.5
20260903184046 23 171 0.0 3.2 0.00 0.03 0.00 97 1013.6
20260903183545 23 0 0.0 1.6 0.00 0.03 0.00 97 1013.8
20260903183104 23 0 0.0 3.2 0.00 0.03 0.00 97 1014.0
20260903182548 23 171 0.0 3.2 0.00 0.03 0.00 96 1014.0
20260903182050 23 0 0.0 3.2 0.00 0.03 0.00 96 1014.1
20260903181600 23 171 0.0 6.4 0.00 0.03 0.00 96 1014.1
20260903181046 23 171 1.6 6.4 0.00 0.03 0.00 96 1014.1
20260903180546 22 179 0.0 6.4 0.00 0.03 0.00 96 1014.0
20260903180105 22 61 0.0 4.8 0.00 0.03 0.00 96 1014.2
20260903175547 22 0 0.0 4.8 0.00 0.03 0.00 95 1014.1
20260903175046 22 57 0.0 4.8 0.00 0.03 0.00 95 1014.0
20260903174601 22 5 0.0 4.8 0.00 0.03 0.00 95 1014.3
20260903174045 22 22 0.0 4.8 0.00 0.03 0.00 95 1014.0
20260903173546 22 17 0.0 3.2 0.00 0.03 0.00 95 1013.8
20260903173106 22 0 0.0 3.2 0.00 0.03 0.00 95 1013.6
20260903172546 22 0 0.0 3.2 0.00 0.03 0.00 95 1013.3
20260903172045 22 0 0.0 6.4 0.00 0.03 0.00 94 1013.4
20260903171604 21 0 0.0 6.4 0.00 0.03 0.00 94 1013.4
20260903171047 21 0 0.0 0.0 0.00 0.03 0.00 94 1013.6
20260903170546 21 0 0.0 3.2 0.00 0.03 0.00 93 1013.9
20260903170108 21 0 0.0 3.2 0.00 0.03 0.00 93 1014.9
20260903165546 21 0 0.0 1.6 0.00 0.03 0.00 93 1015.2
20260903165046 21 0 0.0 1.6 0.00 0.03 0.00 93 1015.5
20260903164559 21 161 0.0 1.6 0.00 0.03 0.00 92 1015.7
20260903164046 21 0 0.0 0.0 0.00 0.03 0.00 92 1016.0
20260903163544 21 0 0.0 0.0 0.00 0.03 0.00 92 1016.3
20260903163056 21 0 0.0 1.6 0.00 0.03 0.00 92 1016.5
20260903162546 22 0 0.0 11.3 0.00 0.03 0.00 92 1016.6
20260903162045 22 0 1.6 19.3 0.00 0.03 0.00 92 1016.9
20260903161603 22 182 11.3 19.3 0.00 0.03 0.00 92 1017.4
20260903161046 22 192 6.4 11.3 0.00 0.03 0.00 91 1017.5
20260903160546 21 184 0.0 3.2 0.00 0.03 0.00 89 1017.2
20260903160107 22 0 0.0 6.4 0.00 0.03 0.00 88 1017.0
20260903155546 22 0 0.0 16.1 0.00 0.03 0.00 87 1016.6
20260903155046 22 0 1.6 16.1 0.00 0.03 0.00 87 1016.3
20260903154605 22 84 4.8 16.1 0.00 0.03 0.00 85 1016.0
20260903154046 22 37 0.0 8.0 0.00 0.03 0.00 83 1016.4
20260903153546 22 0 3.2 8.0 0.00 0.03 0.00 83 1016.2
20260903153103 23 40 3.2 6.4 0.00 0.03 0.00 81 1015.3
20260903152546 23 40 1.6 9.7 0.00 0.03 0.00 80 1015.5
20260903152045 23 0 0.0 11.3 0.00 0.03 0.00 78 1015.9
20260903151600 23 0 1.6 11.3 0.00 0.03 0.00 77 1015.8
20260903151045 23 0 1.6 6.4 0.00 0.03 0.00 76 1015.6
20260903150546 23 54 1.6 4.8 0.00 0.03 0.00 76 1015.7
20260903150118 23 0 0.0 6.4 0.00 0.03 0.00 76 1015.2
20260903145546 23 15 0.0 6.4 0.00 0.03 0.00 76 1014.7
20260903145047 23 5 0.0 6.4 0.00 0.03 0.00 76 1014.9
20260903144606 23 0 1.6 6.4 0.00 0.03 0.00 76 1014.9
20260903144047 23 350 1.6 6.4 0.00 0.03 0.00 76 1014.9
20260903143545 23 51 0.0 8.0 0.00 0.03 0.00 76 1014.9
20260903143105 23 5 1.6 9.7 0.00 0.03 0.00 76 1015.0
20260903142549 23 313 3.2 12.9 0.00 0.03 0.00 76 1014.8
20260903142046 23 36 3.2 12.9 0.00 0.03 0.00 77 1014.7
20260903141559 23 0 1.6 12.9 0.00 0.03 0.00 78 1015.0
20260903141049 23 0 1.6 8.0 0.00 0.03 0.00 78 1014.9
20260903140547 23 0 0.0 11.3 0.00 0.03 0.00 80 1014.9
20260903140114 23 21 1.6 11.3 0.00 0.03 0.00 82 1014.8
20260903135547 23 355 3.2 12.9 0.00 0.03 0.00 87 1014.8
20260903135046 23 0 3.2 12.9 0.00 0.03 0.00 91 1014.9
20260903134610 23 44 1.6 8.0 0.00 0.03 0.00 94 1015.0
20260903134047 23 22 3.2 9.7 0.00 0.03 0.00 95 1014.6
20260903133547 23 0 1.6 11.3 0.00 0.03 0.00 95 1014.6
20260903133108 23 26 4.8 11.3 0.00 0.03 0.00 96 1014.5
20260903132548 23 0 0.0 1.6 0.00 0.03 0.00 96 1013.9
20260903132045 23 0 0.0 0.0 0.00 0.03 0.00 96 1013.4
20260903131601 23 0 0.0 0.0 0.00 0.03 0.00 96 1013.2
20260903131045 23 0 0.0 0.0 0.00 0.03 0.00 96 1013.1
20260903130545 23 0 0.0 1.6 0.00 0.03 0.00 96 1013.1
20260903125546 23 0 0.0 6.4 0.00 0.03 0.00 96 1012.8
20260903125046 23 188 3.2 6.4 0.00 0.03 0.00 96 1012.8
20260903124557 23 188 0.0 3.2 0.00 0.03 0.00 95 1012.8
20260903124045 23 0 0.0 1.6 0.00 0.03 0.00 95 1012.8
20260903123549 23 0 0.0 1.6 0.00 0.03 0.00 95 1012.9
20260903123101 23 0 0.0 1.6 0.00 0.03 0.00 95 1012.9
20260903122546 22 0 0.0 1.6 0.00 0.03 0.00 95 1012.8
20260903122046 22 0 0.0 1.6 0.00 0.03 0.00 95 1013.0
20260903121558 22 0 0.0 0.0 0.00 0.03 0.00 95 1012.9
20260903121046 22 0 0.0 0.0 0.00 0.03 0.00 94 1012.9
20260903120545 22 0 0.0 0.0 0.00 0.03 0.00 94 1013.0
20260903120106 22 0 0.0 0.0 0.00 0.03 0.00 94 1012.9
20260903115546 22 0 0.0 0.0 0.00 0.03 0.00 94 1013.0
20260903115049 22 0 0.0 0.0 0.00 0.03 0.00 94 1013.0
20260903114558 22 0 0.0 0.0 0.00 0.03 0.00 94 1013.0
20260903114045 22 0 0.0 0.0 0.00 0.03 0.00 94 1013.0
20260903113550 22 0 0.0 0.0 0.00 0.03 0.00 94 1013.1
20260903113056 22 0 0.0 0.0 0.00 0.03 0.00 94 1013.1
20260903112548 22 0 0.0 0.0 0.00 0.03 0.00 94 1013.1
20260903112045 22 0 0.0 0.0 0.00 0.03 0.00 94 1013.0
20260903111558 22 0 0.0 0.0 0.00 0.03 0.00 94 1013.0
20260903111046 22 0 0.0 0.0 0.00 0.03 0.00 94 1012.9
20260903110546 22 0 0.0 0.0 0.00 0.03 0.00 94 1013.0
20260903105547 22 0 0.0 0.0 0.00 0.03 0.00 94 1013.0
20260903105048 22 0 0.0 0.0 0.00 0.03 0.00 94 1012.9
20260903104559 22 0 0.0 0.0 0.00 0.03 0.00 94 1013.0
20260903104045 22 0 0.0 0.0 0.00 0.03 0.00 94 1012.9
20260903103546 22 0 0.0 0.0 0.00 0.03 0.00 94 1012.9
20260903103105 22 0 0.0 0.0 0.00 0.03 0.00 94 1013.0
20260903102546 22 0 0.0 0.0 0.00 0.03 0.00 94 1012.9
20260903102050 23 0 0.0 0.0 0.00 0.03 0.00 94 1013.0
20260903101603 23 0 0.0 0.0 0.00 0.03 0.00 94 1013.0
20260903101045 23 0 0.0 0.0 0.00 0.03 0.00 94 1013.0
20260903100545 23 0 0.0 0.0 0.00 0.03 0.00 94 1013.0
20260903095545 23 0 0.0 0.0 0.00 0.03 0.00 94 1013.0
20260903095046 23 0 0.0 0.0 0.00 0.03 0.00 94 1013.1
20260903094608 23 0 0.0 0.0 0.00 0.03 0.00 94 1013.2
20260903094045 23 0 0.0 0.0 0.00 0.03 0.00 94 1013.2
20260903093545 23 0 0.0 0.0 0.00 0.03 0.00 94 1013.1
20260903093129 23 0 0.0 0.0 0.00 0.03 0.00 94 1013.1
20260903092546 23 0 0.0 0.0 0.00 0.03 0.00 94 1013.1
20260903092046 23 0 0.0 0.0 0.00 0.03 0.00 94 1013.0
20260903091601 23 0 0.0 0.0 0.00 0.03 0.00 94 1013.0
20260903091046 23 0 0.0 0.0 0.00 0.03 0.00 95 1013.0
20260903090545 23 0 0.0 0.0 0.00 0.03 0.00 94 1013.0
20260903090058 23 0 0.0 0.0 0.00 0.03 0.00 94 1013.0
20260903085545 23 0 0.0 0.0 0.00 0.03 0.00 94 1013.0
20260903085046 23 0 0.0 0.0 0.00 0.03 0.00 94 1013.0
20260903084603 23 0 0.0 0.0 0.00 0.03 0.00 94 1013.0
20260903084047 23 0 0.0 0.0 0.00 0.03 0.00 94 1013.0
20260903083546 23 0 0.0 0.0 0.00 0.03 0.00 94 1013.0
20260903083102 23 0 0.0 0.0 0.00 0.03 0.00 94 1013.0
20260903082545 23 0 0.0 0.0 0.00 0.03 0.00 93 1013.1
20260903082045 23 0 0.0 0.0 0.00 0.03 0.00 93 1013.3
20260903081558 23 0 0.0 0.0 0.00 0.03 0.00 93 1013.1
20260903081046 23 0 0.0 0.0 0.00 0.03 0.00 93 1013.1
20260903080546 23 0 0.0 0.0 0.00 0.03 0.00 93 1013.1
20260903080110 23 0 0.0 0.0 0.00 0.03 0.00 93 1013.2
20260903075546 23 0 0.0 0.0 0.00 0.03 0.00 93 1013.1
20260903075045 23 0 0.0 0.0 0.00 0.03 0.00 93 1013.1
20260903074625 23 0 0.0 0.0 0.00 0.03 0.00 93 1013.1
20260903074046 23 0 0.0 0.0 0.00 0.03 0.00 93 1013.2
20260903073559 23 0 0.0 0.0 0.00 0.03 0.00 93 1013.0
20260903073110 23 0 0.0 0.0 0.00 0.03 0.00 93 1013.1
20260903072545 23 0 0.0 0.0 0.00 0.03 0.00 93 1013.1
20260903072045 23 0 0.0 0.0 0.00 0.03 0.00 93 1013.1
20260903071607 23 0 0.0 0.0 0.00 0.03 0.00 93 1013.0
20260903071046 23 0 0.0 0.0 0.00 0.03 0.00 93 1013.1
20260903070547 23 0 0.0 0.0 0.00 0.03 0.00 93 1013.1
20260903070057 23 0 0.0 0.0 0.00 0.03 0.00 93 1013.0
20260903065547 23 0 0.0 0.0 0.00 0.03 0.00 93 1013.0
20260903065046 23 0 0.0 0.0 0.00 0.03 0.00 93 1013.1
20260903064558 23 0 0.0 0.0 0.00 0.03 0.00 92 1013.3
20260903064045 23 0 0.0 0.0 0.00 0.03 0.00 92 1013.2
20260903063545 23 0 0.0 0.0 0.00 0.03 0.00 92 1013.4
20260903063057 23 0 0.0 0.0 0.00 0.03 0.00 92 1013.3
20260903062546 23 0 0.0 0.0 0.00 0.03 0.00 92 1013.4
20260903062045 23 0 0.0 0.0 0.00 0.03 0.00 92 1013.3
20260903061559 23 0 0.0 0.0 0.00 0.03 0.00 92 1013.4
20260903061045 23 0 0.0 0.0 0.00 0.03 0.00 91 1013.4
20260903060547 23 0 0.0 0.0 0.00 0.03 0.00 91 1013.3
20260903055546 23 0 0.0 0.0 0.00 0.03 0.00 91 1013.2
20260903055045 23 0 0.0 0.0 0.00 0.03 0.00 91 1013.3
20260903054601 23 0 0.0 0.0 0.00 0.03 0.00 91 1013.3
20260903054045 23 0 0.0 0.0 0.00 0.03 0.00 91 1013.3
20260903053544 23 0 0.0 0.0 0.00 0.03 0.00 91 1013.4
20260903053058 24 0 0.0 0.0 0.00 0.03 0.00 91 1013.3
20260903052547 24 0 0.0 0.0 0.00 0.03 0.00 91 1013.3
20260903052045 24 0 0.0 0.0 0.00 0.03 0.00 91 1013.3
20260903051601 24 0 0.0 0.0 0.00 0.03 0.00 91 1013.4
20260903051045 24 0 0.0 0.0 0.00 0.03 0.00 91 1013.4
20260903050545 24 0 0.0 0.0 0.00 0.03 0.00 91 1013.3
20260903050100 24 0 0.0 0.0 0.00 0.03 0.00 91 1013.3
20260903045545 24 0 0.0 0.0 0.00 0.03 0.03 90 1013.3
20260903045045 24 0 0.0 0.0 0.00 0.03 0.03 90 1013.3
20260903044557 25 0 0.0 0.0 0.00 0.03 0.03 90 1013.3
20260903044047 25 0 0.0 0.0 0.00 0.03 0.03 90 1013.2
20260903043545 25 0 0.0 0.0 0.00 0.03 0.03 90 1013.1
20260903043102 25 0 0.0 0.0 0.00 0.03 0.03 90 1013.1
20260903042547 25 0 0.0 0.0 0.00 0.03 0.03 90 1012.9
20260903042045 25 0 0.0 0.0 0.00 0.03 0.03 89 1012.8
20260903041556 25 0 0.0 0.0 0.00 0.03 0.03 89 1012.8
20260903041051 25 0 0.0 0.0 0.00 0.03 0.03 89 1012.7
20260903040545 25 0 0.0 0.0 0.00 0.03 0.03 89 1012.7
20260903040057 25 0 0.0 0.0 0.03 0.03 0.03 89 1012.8
20260903035545 25 0 0.0 0.0 0.03 0.03 0.03 89 1012.8
20260903035045 25 0 0.0 0.0 0.03 0.03 0.03 89 1012.8
20260903034606 25 0 0.0 0.0 0.03 0.03 0.03 89 1012.8
20260903034046 25 0 0.0 0.0 0.03 0.03 0.03 89 1012.8
20260903033545 25 0 0.0 0.0 0.03 0.03 0.03 89 1012.9
20260903033116 25 0 0.0 0.0 0.03 0.03 0.03 88 1012.9
20260903032546 25 0 0.0 0.0 0.03 0.03 0.03 88 1012.9
20260903032046 25 0 0.0 0.0 0.03 0.03 0.03 88 1013.0
20260903031635 25 0 0.0 0.0 0.03 0.03 0.03 88 1012.8
20260903031045 25 0 0.0 0.0 0.03 0.03 0.03 88 1012.9
20260903030546 25 0 0.0 0.0 0.03 0.03 0.03 88 1013.0